| time (UTC) | temp C | wind direction | speed KPH | gust KPH | rain 1hr cm | rain 24hr cm | rain mn cm | humidity % | barometer mb |
| 20260905094027 | 20 | 276 | 0.0 | 0.0 | 0.00 | 0.00 | 0.00 | 99 | 1012.4 |
| 20260905093522 | 20 | 276 | 0.0 | 0.0 | 0.00 | 0.00 | 0.00 | 99 | 1012.3 |
| 20260905093019 | 20 | 277 | 0.0 | 0.0 | 0.00 | 0.00 | 0.00 | 99 | 1012.6 |
| 20260905092519 | 21 | 280 | 0.0 | 0.0 | 0.00 | 0.00 | 0.00 | 99 | 1012.3 |
| 20260905092015 | 21 | 263 | 0.0 | 0.0 | 0.00 | 0.00 | 0.00 | 99 | 1012.1 |
| 20260905091513 | 21 | 261 | 0.0 | 0.0 | 0.00 | 0.00 | 0.00 | 99 | 1012.1 |
| 20260905091008 | 21 | 265 | 0.0 | 0.0 | 0.00 | 0.00 | 0.00 | 99 | 1012.1 |
| 20260905090503 | 21 | 308 | 0.0 | 0.0 | 0.00 | 0.00 | 0.00 | 99 | 1012.3 |
| 20260905090002 | 21 | 261 | 0.0 | 0.0 | 0.00 | 0.00 | 0.00 | 99 | 1012.2 |
| 20260905085501 | 21 | 261 | 0.0 | 0.0 | 0.00 | 0.00 | 0.00 | 99 | 1012.3 |
| 20260905084957 | 21 | 270 | 0.0 | 0.0 | 0.00 | 0.00 | 0.00 | 99 | 1012.2 |
| 20260905084457 | 21 | 258 | 0.0 | 0.0 | 0.00 | 0.00 | 0.00 | 99 | 1012.3 |
| 20260905083952 | 21 | 258 | 0.0 | 0.0 | 0.00 | 0.00 | 0.00 | 99 | 1012.4 |
| 20260905083447 | 21 | 266 | 0.0 | 0.0 | 0.00 | 0.00 | 0.00 | 99 | 1012.2 |
| 20260905082943 | 21 | 255 | 0.0 | 0.0 | 0.00 | 0.00 | 0.00 | 99 | 1012.3 |
| 20260905082439 | 21 | 255 | 0.0 | 0.0 | 0.00 | 0.00 | 0.00 | 99 | 1012.2 |
| 20260905081934 | 21 | 260 | 0.0 | 0.0 | 0.00 | 0.00 | 0.00 | 99 | 1012.3 |
| 20260905081434 | 21 | 260 | 0.0 | 0.0 | 0.00 | 0.00 | 0.00 | 99 | 1012.3 |
| 20260905080932 | 21 | 269 | 0.0 | 0.0 | 0.00 | 0.00 | 0.00 | 99 | 1012.3 |
| 20260905080427 | 21 | 270 | 0.0 | 0.0 | 0.00 | 0.00 | 0.00 | 99 | 1012.3 |
| 20260905075926 | 21 | 257 | 0.0 | 0.0 | 0.00 | 0.00 | 0.00 | 99 | 1012.4 |
| 20260905075421 | 21 | 255 | 0.0 | 0.0 | 0.00 | 0.00 | 0.00 | 99 | 1012.4 |
| 20260905074920 | 21 | 248 | 0.0 | 0.0 | 0.00 | 0.00 | 0.00 | 99 | 1012.4 |
| 20260905074416 | 21 | 250 | 0.0 | 0.0 | 0.00 | 0.00 | 0.00 | 99 | 1012.7 |
| 20260905073911 | 21 | 259 | 0.0 | 0.0 | 0.00 | 0.00 | 0.00 | 99 | 1012.7 |
| 20260905073406 | 21 | 259 | 0.0 | 0.0 | 0.00 | 0.00 | 0.00 | 99 | 1012.7 |
| 20260905072902 | 21 | 269 | 0.0 | 0.0 | 0.00 | 0.00 | 0.00 | 99 | 1012.7 |
| 20260905072356 | 21 | 270 | 0.0 | 0.0 | 0.00 | 0.00 | 0.00 | 99 | 1012.7 |
| 20260905071852 | 21 | 270 | 0.0 | 0.0 | 0.00 | 0.00 | 0.00 | 99 | 1012.7 |
| 20260905071349 | 21 | 267 | 0.0 | 0.0 | 0.00 | 0.00 | 0.00 | 99 | 1012.7 |
| 20260905070843 | 21 | 266 | 0.0 | 0.0 | 0.00 | 0.00 | 0.00 | 99 | 1012.7 |
| 20260905070339 | 21 | 258 | 0.0 | 0.0 | 0.00 | 0.00 | 0.00 | 99 | 1012.7 |
| 20260905065838 | 21 | 257 | 0.0 | 0.0 | 0.00 | 0.00 | 0.00 | 99 | 1012.8 |
| 20260905065337 | 21 | 256 | 0.0 | 0.0 | 0.00 | 0.00 | 0.00 | 99 | 1013.1 |
| 20260905064832 | 21 | 259 | 0.0 | 0.0 | 0.00 | 0.00 | 0.00 | 99 | 1012.8 |
| 20260905064328 | 21 | 266 | 0.0 | 0.0 | 0.00 | 0.00 | 0.00 | 99 | 1012.9 |
| 20260905063826 | 21 | 250 | 0.0 | 0.0 | 0.00 | 0.00 | 0.00 | 99 | 1012.9 |
| 20260905063322 | 21 | 255 | 0.0 | 0.0 | 0.00 | 0.00 | 0.00 | 99 | 1013.2 |
| 20260905062819 | 21 | 248 | 0.0 | 0.0 | 0.00 | 0.00 | 0.00 | 99 | 1013.1 |
| 20260905062313 | 21 | 266 | 0.0 | 0.0 | 0.00 | 0.00 | 0.00 | 99 | 1013.1 |
| 20260905061808 | 21 | 272 | 0.0 | 0.0 | 0.00 | 0.00 | 0.00 | 99 | 1013.3 |
| 20260905061308 | 21 | 250 | 0.0 | 0.0 | 0.00 | 0.00 | 0.00 | 99 | 1013.2 |
| 20260905060802 | 21 | 258 | 0.0 | 0.0 | 0.00 | 0.00 | 0.00 | 99 | 1013.5 |
| 20260905060259 | 21 | 263 | 0.0 | 0.0 | 0.00 | 0.00 | 0.00 | 99 | 1013.4 |
| 20260905055757 | 21 | 263 | 0.0 | 0.0 | 0.00 | 0.00 | 0.00 | 99 | 1013.6 |
| 20260905055252 | 21 | 267 | 0.0 | 0.0 | 0.00 | 0.00 | 0.00 | 99 | 1013.6 |
| 20260905054747 | 21 | 256 | 0.0 | 0.0 | 0.00 | 0.00 | 0.00 | 99 | 1013.6 |
| 20260905054239 | 21 | 250 | 0.0 | 0.0 | 0.00 | 0.00 | 0.00 | 99 | 1013.7 |
| 20260905053737 | 21 | 248 | 0.0 | 0.0 | 0.00 | 0.00 | 0.00 | 99 | 1013.8 |
| 20260905053233 | 21 | 257 | 0.0 | 1.6 | 0.00 | 0.00 | 0.00 | 99 | 1013.9 |
| 20260905052732 | 21 | 253 | 0.0 | 0.0 | 0.00 | 0.00 | 0.00 | 99 | 1014.0 |
| 20260905052227 | 21 | 254 | 0.0 | 0.0 | 0.00 | 0.00 | 0.00 | 99 | 1014.2 |
| 20260905051726 | 21 | 263 | 0.0 | 0.0 | 0.00 | 0.00 | 0.00 | 99 | 1014.6 |
| 20260905051223 | 21 | 247 | 0.0 | 0.0 | 0.00 | 0.00 | 0.00 | 99 | 1014.4 |
| 20260905050720 | 21 | 256 | 0.0 | 0.0 | 0.00 | 0.00 | 0.00 | 99 | 1014.4 |
| 20260905050216 | 21 | 254 | 0.0 | 0.0 | 0.00 | 0.00 | 0.00 | 99 | 1014.5 |
| 20260905045715 | 21 | 259 | 0.0 | 0.0 | 0.00 | 0.00 | 0.00 | 99 | 1014.3 |
| 20260905045211 | 21 | 264 | 0.0 | 0.0 | 0.00 | 0.00 | 0.00 | 99 | 1014.7 |
| 20260905044706 | 21 | 266 | 0.0 | 0.0 | 0.00 | 0.00 | 0.00 | 99 | 1014.7 |
| 20260905044202 | 21 | 266 | 0.0 | 0.0 | 0.00 | 0.00 | 0.00 | 99 | 1014.8 |
| 20260905043700 | 21 | 266 | 0.0 | 0.0 | 0.00 | 0.00 | 0.00 | 99 | 1014.7 |
| 20260905043155 | 21 | 263 | 0.0 | 0.0 | 0.00 | 0.00 | 0.00 | 99 | 1014.8 |
| 20260905042654 | 22 | 256 | 0.0 | 0.0 | 0.00 | 0.00 | 0.00 | 99 | 1014.9 |
| 20260905042148 | 22 | 257 | 0.0 | 0.0 | 0.00 | 0.00 | 0.00 | 99 | 1014.9 |
| 20260905041644 | 22 | 254 | 0.0 | 0.0 | 0.00 | 0.00 | 0.00 | 99 | 1014.9 |
| 20260905041139 | 22 | 254 | 0.0 | 0.0 | 0.00 | 0.00 | 0.00 | 99 | 1015.0 |
| 20260905040634 | 22 | 250 | 0.0 | 0.0 | 0.00 | 0.00 | 0.00 | 99 | 1015.0 |
| 20260905040133 | 22 | 256 | 0.0 | 0.0 | 0.00 | 1.80 | 1.80 | 99 | 1014.9 |
| 20260905035628 | 22 | 250 | 0.0 | 0.0 | 0.00 | 1.80 | 1.80 | 99 | 1014.9 |
| 20260905035125 | 22 | 190 | 1.6 | 3.2 | 0.00 | 1.80 | 1.80 | 99 | 1014.9 |
| 20260905034620 | 22 | 254 | 0.0 | 1.6 | 0.00 | 1.80 | 1.80 | 99 | 1015.0 |
| 20260905034120 | 22 | 258 | 0.0 | 0.0 | 0.00 | 1.80 | 1.80 | 99 | 1015.2 |
| 20260905033614 | 22 | 245 | 0.0 | 0.0 | 0.00 | 1.80 | 1.80 | 99 | 1015.2 |
| 20260905033110 | 22 | 250 | 0.0 | 0.0 | 0.00 | 1.80 | 1.80 | 99 | 1015.1 |
| 20260905032609 | 22 | 261 | 0.0 | 0.0 | 0.00 | 1.80 | 1.80 | 99 | 1015.0 |
| 20260905032104 | 22 | 242 | 0.0 | 0.0 | 0.00 | 1.80 | 1.80 | 99 | 1015.1 |
| 20260905031600 | 22 | 264 | 0.0 | 0.0 | 0.00 | 1.80 | 1.80 | 99 | 1014.9 |
| 20260905031100 | 22 | 256 | 0.0 | 0.0 | 0.00 | 1.80 | 1.80 | 99 | 1014.8 |
| 20260905030555 | 22 | 259 | 0.0 | 0.0 | 0.00 | 1.80 | 1.80 | 99 | 1014.9 |
| 20260905030050 | 22 | 250 | 0.0 | 0.0 | 0.00 | 1.80 | 1.80 | 99 | 1014.8 |
| 20260905025545 | 22 | 255 | 0.0 | 0.0 | 0.00 | 1.80 | 1.80 | 99 | 1014.9 |
| 20260905025041 | 22 | 258 | 0.0 | 0.0 | 0.00 | 1.80 | 1.80 | 99 | 1015.0 |
| 20260905024536 | 22 | 267 | 0.0 | 0.0 | 0.00 | 1.80 | 1.80 | 99 | 1015.3 |
| 20260905024032 | 22 | 260 | 0.0 | 0.0 | 0.00 | 1.80 | 1.80 | 99 | 1015.2 |
| 20260905023527 | 22 | 243 | 0.0 | 1.6 | 0.00 | 1.80 | 1.80 | 99 | 1015.2 |
| 20260905023026 | 22 | 255 | 0.0 | 1.6 | 0.00 | 1.80 | 1.80 | 99 | 1015.1 |
| 20260905022521 | 22 | 256 | 0.0 | 0.0 | 0.00 | 1.80 | 1.80 | 99 | 1015.0 |
| 20260905022016 | 22 | 259 | 0.0 | 0.0 | 0.00 | 1.80 | 1.80 | 99 | 1015.0 |
| 20260905021516 | 22 | 250 | 0.0 | 0.0 | 0.00 | 1.80 | 1.80 | 99 | 1015.2 |
| 20260905021011 | 22 | 250 | 0.0 | 0.0 | 0.00 | 1.80 | 1.80 | 99 | 1015.4 |
| 20260905020511 | 22 | 258 | 0.0 | 0.0 | 0.00 | 1.80 | 1.80 | 99 | 1015.3 |
| 20260905020007 | 22 | 254 | 0.0 | 0.0 | 0.00 | 1.80 | 1.80 | 99 | 1014.9 |
| 20260905015504 | 22 | 250 | 0.0 | 0.0 | 0.00 | 1.80 | 1.80 | 99 | 1015.1 |
| 20260905015004 | 22 | 259 | 0.0 | 0.0 | 0.00 | 1.80 | 1.80 | 99 | 1015.0 |
| 20260905014459 | 22 | 250 | 0.0 | 0.0 | 0.00 | 1.80 | 1.80 | 99 | 1015.3 |
| 20260905013954 | 22 | 247 | 0.0 | 0.0 | 0.00 | 1.80 | 1.80 | 99 | 1015.2 |
| 20260905013450 | 22 | 255 | 0.0 | 0.0 | 0.00 | 1.80 | 1.80 | 99 | 1014.9 |
| 20260905012946 | 22 | 254 | 0.0 | 0.0 | 0.00 | 1.80 | 1.80 | 99 | 1014.6 |
| 20260905012440 | 22 | 254 | 0.0 | 0.0 | 0.00 | 1.80 | 1.80 | 99 | 1014.8 |
| 20260905011937 | 22 | 250 | 0.0 | 1.6 | 0.00 | 1.80 | 1.80 | 99 | 1014.6 |
| 20260905011433 | 22 | 247 | 0.0 | 0.0 | 0.00 | 1.80 | 1.80 | 99 | 1014.5 |
| 20260905010928 | 22 | 219 | 0.0 | 0.0 | 0.00 | 1.80 | 1.80 | 99 | 1014.4 |
| 20260905010423 | 22 | 247 | 0.0 | 0.0 | 0.00 | 1.80 | 1.80 | 99 | 1014.2 |
| 20260905005919 | 22 | 247 | 0.0 | 0.0 | 0.00 | 1.80 | 1.80 | 99 | 1014.2 |
| 20260905005415 | 22 | 250 | 0.0 | 0.0 | 0.00 | 1.80 | 1.80 | 99 | 1014.4 |
| 20260905004910 | 22 | 264 | 0.0 | 0.0 | 0.00 | 1.80 | 1.80 | 99 | 1014.0 |
| 20260905004410 | 22 | 117 | 3.2 | 3.2 | 0.00 | 1.80 | 1.80 | 99 | 1014.0 |
| 20260905003905 | 22 | 258 | 0.0 | 0.0 | 0.00 | 1.80 | 1.80 | 99 | 1014.2 |
| 20260905003400 | 22 | 259 | 0.0 | 0.0 | 0.00 | 1.80 | 1.80 | 99 | 1014.4 |
| 20260905002856 | 22 | 248 | 0.0 | 0.0 | 0.00 | 1.80 | 1.80 | 99 | 1013.7 |
| 20260905002350 | 22 | 256 | 0.0 | 0.0 | 0.00 | 1.80 | 1.80 | 99 | 1013.9 |
| 20260905001845 | 22 | 256 | 0.0 | 0.0 | 0.00 | 1.80 | 1.80 | 99 | 1013.8 |
| 20260905001344 | 22 | 260 | 0.0 | 0.0 | 0.00 | 1.80 | 1.80 | 99 | 1013.8 |
| 20260905000839 | 22 | 247 | 0.0 | 0.0 | 0.00 | 1.80 | 1.80 | 99 | 1013.9 |
| 20260905000335 | 22 | 219 | 0.0 | 1.6 | 0.00 | 1.80 | 1.80 | 99 | 1013.6 |
| 20260904235831 | 22 | 262 | 0.0 | 0.0 | 0.00 | 1.80 | 1.80 | 99 | 1013.5 |
| 20260904235326 | 22 | 343 | 1.6 | 1.6 | 0.00 | 1.80 | 1.80 | 99 | 1013.3 |
| 20260904234821 | 22 | 267 | 0.0 | 0.0 | 0.18 | 1.80 | 1.80 | 99 | 1013.5 |
| 20260904234321 | 22 | 239 | 0.0 | 1.6 | 0.18 | 1.80 | 1.80 | 99 | 1013.2 |
| 20260904233817 | 22 | 226 | 0.0 | 3.2 | 0.00 | 1.78 | 1.78 | 99 | 1013.4 |
| 20260904233313 | 22 | 198 | 0.0 | 1.6 | 0.00 | 1.78 | 1.78 | 99 | 1014.0 |
| 20260904232809 | 23 | 250 | 3.2 | 3.2 | 0.00 | 1.78 | 1.78 | 99 | 1014.3 |
| 20260904232307 | 23 | 210 | 0.0 | 0.0 | 0.00 | 1.78 | 1.78 | 99 | 1014.4 |
| 20260904231801 | 22 | 257 | 0.0 | 0.0 | 0.00 | 1.78 | 1.78 | 99 | 1014.5 |
| 20260904231255 | 23 | 227 | 0.0 | 0.0 | 0.00 | 1.78 | 1.78 | 99 | 1014.5 |
| 20260904230751 | 23 | 239 | 0.0 | 0.0 | 0.00 | 1.78 | 1.78 | 99 | 1014.8 |
| 20260904230249 | 22 | 246 | 0.0 | 1.6 | 0.00 | 1.78 | 1.78 | 99 | 1015.0 |
| 20260904225744 | 23 | 230 | 0.0 | 1.6 | 0.00 | 1.78 | 1.78 | 99 | 1015.0 |
| 20260904225238 | 22 | 244 | 0.0 | 0.0 | 0.00 | 1.78 | 1.78 | 99 | 1015.1 |
| 20260904224737 | 22 | 235 | 0.0 | 1.6 | 0.00 | 1.78 | 1.78 | 99 | 1015.1 |
| 20260904224233 | 22 | 244 | 0.0 | 1.6 | 0.00 | 1.78 | 1.78 | 99 | 1015.1 |
| 20260904223732 | 22 | 234 | 0.0 | 0.0 | 0.00 | 1.78 | 1.78 | 99 | 1015.5 |
| 20260904223227 | 22 | 259 | 0.0 | 0.0 | 0.00 | 1.78 | 1.78 | 99 | 1015.1 |
| 20260904222723 | 22 | 336 | 1.6 | 9.7 | 0.13 | 1.78 | 1.78 | 99 | 1015.2 |
| 20260904222218 | 22 | 296 | 1.6 | 1.6 | 0.43 | 1.78 | 1.78 | 99 | 1015.1 |
| 20260904221718 | 22 | 246 | 1.6 | 3.2 | 0.48 | 1.75 | 1.75 | 99 | 1015.2 |
| 20260904221213 | 22 | 237 | 0.0 | 3.2 | 0.18 | 1.70 | 1.70 | 99 | 1015.0 |
| 20260904220707 | 22 | 160 | 1.6 | 1.6 | 0.18 | 1.68 | 1.68 | 99 | 1015.0 |
| 20260904220202 | 22 | 140 | 1.6 | 6.4 | 0.79 | 1.68 | 1.68 | 99 | 1015.2 |
| 20260904215702 | 22 | 225 | 1.6 | 3.2 | 3.48 | 1.65 | 1.65 | 99 | 1015.1 |
| 20260904215158 | 22 | 4 | 3.2 | 4.8 | 4.27 | 1.45 | 1.45 | 99 | 1015.2 |
| 20260904214653 | 22 | 256 | 4.8 | 27.4 | 5.16 | 0.99 | 0.99 | 98 | 1015.8 |
| 20260904214148 | 23 | 168 | 4.8 | 30.6 | 4.27 | 0.71 | 0.71 | 96 | 1015.4 |
| 20260904213646 | 28 | 265 | 9.7 | 16.1 | 0.66 | 0.10 | 0.10 | 85 | 1014.2 |
| 20260904213143 | 32 | 252 | 1.6 | 1.6 | 0.00 | 0.00 | 0.00 | 69 | 1014.2 |
| 20260904212638 | 32 | 231 | 0.0 | 0.0 | 0.00 | 0.00 | 0.00 | 67 | 1013.3 |
| 20260904212133 | 33 | 231 | 0.0 | 0.0 | 0.00 | 0.00 | 0.00 | 64 | 1013.2 |
| 20260904211632 | 33 | 231 | 0.0 | 1.6 | 0.00 | 0.00 | 0.00 | 63 | 1013.0 |
| 20260904211127 | 33 | 297 | 0.0 | 1.6 | 0.00 | 0.00 | 0.00 | 61 | 1013.2 |
| 20260904210621 | 34 | 240 | 0.0 | 0.0 | 0.00 | 0.00 | 0.00 | 60 | 1013.1 |
| 20260904210117 | 34 | 229 | 0.0 | 1.6 | 0.00 | 0.00 | 0.00 | 58 | 1013.0 |
| 20260904205607 | 34 | 240 | 0.0 | 0.0 | 0.00 | 0.00 | 0.00 | 59 | 1013.1 |
| 20260904205103 | 34 | 298 | 0.0 | 1.6 | 0.00 | 0.00 | 0.00 | 58 | 1013.1 |
| 20260904204559 | 35 | 326 | 3.2 | 4.8 | 0.00 | 0.00 | 0.00 | 56 | 1013.0 |
| 20260904204055 | 35 | 227 | 0.0 | 3.2 | 0.00 | 0.00 | 0.00 | 55 | 1013.1 |
| 20260904203550 | 35 | 277 | 1.6 | 3.2 | 0.00 | 0.00 | 0.00 | 55 | 1012.9 |
| 20260904203047 | 35 | 66 | 1.6 | 1.6 | 0.00 | 0.00 | 0.00 | 59 | 1013.1 |
| 20260904202542 | 34 | 314 | 0.0 | 0.0 | 0.00 | 0.00 | 0.00 | 58 | 1013.0 |
| 20260904202038 | 35 | 271 | 0.0 | 1.6 | 0.00 | 0.00 | 0.00 | 57 | 1012.9 |
| 20260904201533 | 35 | 108 | 0.0 | 1.6 | 0.00 | 0.00 | 0.00 | 58 | 1012.8 |
| 20260904201028 | 35 | 172 | 0.0 | 1.6 | 0.00 | 0.00 | 0.00 | 57 | 1012.9 |
| 20260904200527 | 35 | 229 | 0.0 | 1.6 | 0.00 | 0.00 | 0.00 | 56 | 1013.1 |
| 20260904200023 | 35 | 227 | 0.0 | 1.6 | 0.00 | 0.00 | 0.00 | 56 | 1013.1 |
| 20260904195521 | 35 | 231 | 0.0 | 0.0 | 0.00 | 0.00 | 0.00 | 54 | 1013.4 |
| 20260904195020 | 35 | 30 | 0.0 | 3.2 | 0.00 | 0.00 | 0.00 | 54 | 1013.5 |
| 20260904194515 | 36 | 225 | 0.0 | 1.6 | 0.00 | 0.00 | 0.00 | 54 | 1013.6 |
| 20260904194010 | 36 | 224 | 0.0 | 1.6 | 0.00 | 0.00 | 0.00 | 52 | 1013.5 |
| 20260904193505 | 36 | 223 | 1.6 | 3.2 | 0.00 | 0.00 | 0.00 | 52 | 1013.6 |
| 20260904193002 | 36 | 235 | 0.0 | 3.2 | 0.00 | 0.00 | 0.00 | 55 | 1013.8 |
| 20260904192501 | 36 | 246 | 1.6 | 1.6 | 0.00 | 0.00 | 0.00 | 52 | 1013.6 |
| 20260904191957 | 36 | 219 | 3.2 | 3.2 | 0.00 | 0.00 | 0.00 | 53 | 1013.8 |
| 20260904191453 | 36 | 230 | 0.0 | 3.2 | 0.00 | 0.00 | 0.00 | 53 | 1013.9 |
| 20260904190950 | 36 | 236 | 0.0 | 4.8 | 0.00 | 0.00 | 0.00 | 52 | 1014.0 |
| 20260904190445 | 36 | 23 | 1.6 | 3.2 | 0.00 | 0.00 | 0.00 | 53 | 1014.2 |
| 20260904185941 | 36 | 233 | 3.2 | 3.2 | 0.00 | 0.00 | 0.00 | 53 | 1014.1 |
| 20260904185437 | 36 | 243 | 1.6 | 1.6 | 0.00 | 0.00 | 0.00 | 54 | 1014.3 |
| 20260904184936 | 36 | 208 | 1.6 | 3.2 | 0.00 | 0.00 | 0.00 | 53 | 1014.3 |
| 20260904184431 | 36 | 237 | 0.0 | 1.6 | 0.00 | 0.00 | 0.00 | 53 | 1014.4 |
| 20260904183927 | 36 | 8 | 3.2 | 4.8 | 0.00 | 0.00 | 0.00 | 52 | 1014.8 |
| 20260904183422 | 36 | 228 | 3.2 | 4.8 | 0.00 | 0.00 | 0.00 | 55 | 1014.6 |
| 20260904182917 | 36 | 200 | 0.0 | 1.6 | 0.00 | 0.00 | 0.00 | 55 | 1014.5 |
| 20260904182412 | 36 | 230 | 0.0 | 1.6 | 0.00 | 0.00 | 0.00 | 55 | 1014.9 |
| 20260904181907 | 36 | 205 | 1.6 | 3.2 | 0.00 | 0.00 | 0.00 | 57 | 1014.7 |
| 20260904181402 | 35 | 219 | 0.0 | 1.6 | 0.00 | 0.00 | 0.00 | 57 | 1014.8 |
| 20260904180857 | 35 | 229 | 0.0 | 1.6 | 0.00 | 0.00 | 0.00 | 55 | 1014.8 |
| 20260904180353 | 36 | 228 | 1.6 | 1.6 | 0.00 | 0.00 | 0.00 | 56 | 1014.8 |
| 20260904175852 | 35 | 235 | 0.0 | 1.6 | 0.00 | 0.00 | 0.00 | 58 | 1015.0 |
| 20260904175350 | 35 | 239 | 1.6 | 3.2 | 0.00 | 0.00 | 0.00 | 59 | 1015.3 |
| 20260904174844 | 35 | 241 | 0.0 | 1.6 | 0.00 | 0.00 | 0.00 | 56 | 1015.1 |
| 20260904174341 | 37 | 310 | 0.0 | 1.6 | 0.00 | 0.00 | 0.00 | 55 | 1015.3 |
| 20260904173837 | 36 | 178 | 0.0 | 1.6 | 0.00 | 0.00 | 0.00 | 58 | 1015.3 |
| 20260904173332 | 35 | 198 | 1.6 | 3.2 | 0.00 | 0.00 | 0.00 | 57 | 1015.4 |
| 20260904172828 | 35 | 215 | 0.0 | 1.6 | 0.00 | 0.00 | 0.00 | 59 | 1015.4 |
| 20260904172327 | 35 | 235 | 1.6 | 4.8 | 0.00 | 0.00 | 0.00 | 60 | 1015.3 |
| 20260904171822 | 35 | 324 | 0.0 | 1.6 | 0.00 | 0.00 | 0.00 | 59 | 1015.3 |
| 20260904171317 | 35 | 288 | 3.2 | 4.8 | 0.00 | 0.00 | 0.00 | 59 | 1015.5 |
| 20260904170814 | 36 | 231 | 0.0 | 3.2 | 0.00 | 0.00 | 0.00 | 56 | 1015.4 |
| 20260904170309 | 35 | 227 | 0.0 | 1.6 | 0.00 | 0.00 | 0.00 | 58 | 1015.3 |
| 20260904165808 | 35 | 255 | 0.0 | 0.0 | 0.00 | 0.00 | 0.00 | 58 | 1015.4 |
| 20260904165305 | 35 | 237 | 1.6 | 3.2 | 0.00 | 0.00 | 0.00 | 60 | 1015.3 |
| 20260904164756 | 35 | 215 | 0.0 | 1.6 | 0.00 | 0.00 | 0.00 | 60 | 1015.4 |
| 20260904164252 | 34 | 153 | 1.6 | 3.2 | 0.00 | 0.00 | 0.00 | 59 | 1015.4 |
| 20260904163748 | 35 | 239 | 1.6 | 4.8 | 0.00 | 0.00 | 0.00 | 61 | 1015.6 |
| 20260904163243 | 35 | 251 | 1.6 | 6.4 | 0.00 | 0.00 | 0.00 | 59 | 1015.7 |
| 20260904162742 | 34 | 339 | 3.2 | 4.8 | 0.00 | 0.00 | 0.00 | 60 | 1015.6 |
| 20260904162237 | 35 | 191 | 1.6 | 4.8 | 0.00 | 0.00 | 0.00 | 62 | 1015.7 |
| 20260904161733 | 34 | 99 | 3.2 | 4.8 | 0.00 | 0.00 | 0.00 | 60 | 1015.7 |
| 20260904161232 | 35 | 258 | 3.2 | 4.8 | 0.00 | 0.00 | 0.00 | 62 | 1015.7 |
| 20260904160728 | 34 | 207 | 1.6 | 3.2 | 0.00 | 0.00 | 0.00 | 60 | 1015.8 |
| 20260904160224 | 34 | 245 | 0.0 | 6.4 | 0.00 | 0.00 | 0.00 | 60 | 1016.1 |
| 20260904155724 | 35 | 355 | 6.4 | 9.7 | 0.00 | 0.00 | 0.00 | 59 | 1015.9 |
| 20260904155223 | 34 | 4 | 3.2 | 3.2 | 0.00 | 0.00 | 0.00 | 60 | 1015.9 |
| 20260904154721 | 34 | 25 | 3.2 | 6.4 | 0.00 | 0.00 | 0.00 | 61 | 1015.8 |
| 20260904154216 | 34 | 4 | 4.8 | 12.9 | 0.00 | 0.00 | 0.00 | 60 | 1016.0 |
| 20260904153712 | 35 | 358 | 6.4 | 9.7 | 0.00 | 0.00 | 0.00 | 60 | 1015.9 |
| 20260904153207 | 35 | 214 | 0.0 | 3.2 | 0.00 | 0.00 | 0.00 | 60 | 1015.8 |
| 20260904152704 | 34 | 189 | 1.6 | 3.2 | 0.00 | 0.00 | 0.00 | 61 | 1015.9 |
| 20260904152159 | 35 | 143 | 3.2 | 11.3 | 0.00 | 0.00 | 0.00 | 60 | 1015.9 |
| 20260904151654 | 34 | 234 | 4.8 | 4.8 | 0.00 | 0.00 | 0.00 | 61 | 1015.8 |
| 20260904151152 | 34 | 271 | 1.6 | 4.8 | 0.00 | 0.00 | 0.00 | 62 | 1015.9 |
| 20260904150648 | 34 | 245 | 0.0 | 1.6 | 0.00 | 0.00 | 0.00 | 64 | 1015.9 |
| 20260904150144 | 33 | 237 | 1.6 | 4.8 | 0.00 | 0.00 | 0.00 | 65 | 1015.8 |
| 20260904145642 | 33 | 262 | 1.6 | 3.2 | 0.00 | 0.00 | 0.00 | 64 | 1015.8 |
| 20260904145137 | 33 | 60 | 3.2 | 6.4 | 0.00 | 0.00 | 0.00 | 66 | 1015.7 |
| 20260904144633 | 33 | 233 | 0.0 | 3.2 | 0.00 | 0.00 | 0.00 | 69 | 1015.8 |
| 20260904144128 | 33 | 154 | 1.6 | 3.2 | 0.00 | 0.00 | 0.00 | 66 | 1015.7 |
| 20260904143624 | 32 | 235 | 1.6 | 3.2 | 0.00 | 0.00 | 0.00 | 68 | 1015.7 |
| 20260904143120 | 32 | 220 | 3.2 | 3.2 | 0.00 | 0.00 | 0.00 | 67 | 1015.8 |
| 20260904142617 | 32 | 221 | 1.6 | 4.8 | 0.00 | 0.00 | 0.00 | 69 | 1015.7 |
| 20260904142112 | 32 | 217 | 1.6 | 1.6 | 0.00 | 0.00 | 0.00 | 69 | 1015.7 |
| 20260904141607 | 32 | 137 | 0.0 | 1.6 | 0.00 | 0.00 | 0.00 | 69 | 1015.7 |
| 20260904141102 | 31 | 171 | 0.0 | 1.6 | 0.00 | 0.00 | 0.00 | 73 | 1015.5 |
| 20260904140558 | 32 | 225 | 1.6 | 1.6 | 0.00 | 0.00 | 0.00 | 71 | 1015.8 |
| 20260904140052 | 31 | 224 | 0.0 | 3.2 | 0.00 | 0.00 | 0.00 | 73 | 1015.6 |
| 20260904135551 | 31 | 237 | 1.6 | 3.2 | 0.00 | 0.00 | 0.00 | 71 | 1015.6 |
| 20260904135048 | 31 | 183 | 1.6 | 4.8 | 0.00 | 0.00 | 0.00 | 72 | 1015.6 |
| 20260904134542 | 31 | 159 | 1.6 | 3.2 | 0.00 | 0.00 | 0.00 | 72 | 1015.6 |
| 20260904134036 | 31 | 223 | 1.6 | 3.2 | 0.00 | 0.00 | 0.00 | 73 | 1015.5 |
| 20260904133531 | 31 | 226 | 1.6 | 3.2 | 0.00 | 0.00 | 0.00 | 73 | 1015.3 |
| 20260904133027 | 30 | 215 | 1.6 | 1.6 | 0.00 | 0.00 | 0.00 | 74 | 1015.4 |
| 20260904132522 | 30 | 195 | 1.6 | 3.2 | 0.00 | 0.00 | 0.00 | 77 | 1015.4 |
| 20260904132021 | 30 | 224 | 3.2 | 3.2 | 0.00 | 0.00 | 0.00 | 76 | 1015.3 |
| 20260904131516 | 30 | 224 | 1.6 | 3.2 | 0.00 | 0.00 | 0.00 | 77 | 1015.5 |
| 20260904131012 | 30 | 223 | 1.6 | 1.6 | 0.00 | 0.00 | 0.00 | 78 | 1015.4 |
| 20260904130511 | 29 | 223 | 1.6 | 3.2 | 0.00 | 0.00 | 0.00 | 78 | 1015.4 |
| 20260904130006 | 29 | 218 | 3.2 | 3.2 | 0.00 | 0.00 | 0.00 | 78 | 1015.6 |
| 20260904125503 | 29 | 225 | 1.6 | 1.6 | 0.00 | 0.00 | 0.00 | 80 | 1015.6 |
| 20260904124956 | 28 | 227 | 1.6 | 1.6 | 0.00 | 0.00 | 0.00 | 80 | 1015.5 |
| 20260904124452 | 28 | 223 | 3.2 | 3.2 | 0.00 | 0.00 | 0.00 | 80 | 1015.6 |
| 20260904123948 | 28 | 222 | 0.0 | 1.6 | 0.00 | 0.00 | 0.00 | 81 | 1015.6 |
| 20260904123442 | 28 | 228 | 0.0 | 1.6 | 0.00 | 0.00 | 0.00 | 82 | 1015.8 |
| 20260904122938 | 28 | 305 | 0.0 | 1.6 | 0.00 | 0.00 | 0.00 | 82 | 1015.5 |
| 20260904122437 | 28 | 210 | 0.0 | 1.6 | 0.00 | 0.00 | 0.00 | 83 | 1015.5 |
| 20260904121932 | 27 | 217 | 0.0 | 0.0 | 0.00 | 0.00 | 0.00 | 85 | 1015.7 |
| 20260904121428 | 27 | 213 | 0.0 | 1.6 | 0.00 | 0.00 | 0.00 | 86 | 1015.9 |
| 20260904120925 | 27 | 176 | 0.0 | 0.0 | 0.00 | 0.00 | 0.00 | 86 | 1015.8 |
| 20260904120420 | 26 | 222 | 0.0 | 0.0 | 0.00 | 0.00 | 0.00 | 90 | 1015.6 |
| 20260904115915 | 26 | 209 | 0.0 | 0.0 | 0.00 | 0.00 | 0.00 | 92 | 1015.6 |
| 20260904115410 | 25 | 210 | 0.0 | 1.6 | 0.00 | 0.00 | 0.00 | 93 | 1015.5 |
| 20260904114905 | 25 | 220 | 0.0 | 0.0 | 0.00 | 0.00 | 0.00 | 95 | 1015.4 |
| 20260904114359 | 24 | 203 | 0.0 | 0.0 | 0.00 | 0.00 | 0.00 | 97 | 1015.6 |
| 20260904113855 | 23 | 215 | 0.0 | 0.0 | 0.00 | 0.00 | 0.00 | 98 | 1015.7 |
| 20260904113354 | 23 | 214 | 0.0 | 0.0 | 0.00 | 0.00 | 0.00 | 98 | 1015.5 |
| 20260904112854 | 23 | 176 | 0.0 | 0.0 | 0.00 | 0.00 | 0.00 | 98 | 1015.5 |
| 20260904112349 | 23 | 215 | 0.0 | 0.0 | 0.00 | 0.00 | 0.00 | 98 | 1015.6 |
| 20260904111846 | 23 | 235 | 0.0 | 0.0 | 0.00 | 0.00 | 0.00 | 98 | 1015.6 |
| 20260904111341 | 23 | 235 | 0.0 | 0.0 | 0.00 | 0.00 | 0.00 | 98 | 1015.5 |
| 20260904110837 | 23 | 290 | 0.0 | 0.0 | 0.00 | 0.00 | 0.00 | 98 | 1015.6 |
| 20260904110335 | 22 | 233 | 0.0 | 0.0 | 0.00 | 0.00 | 0.00 | 98 | 1015.6 |
| 20260904105830 | 22 | 233 | 0.0 | 0.0 | 0.00 | 0.00 | 0.00 | 98 | 1015.5 |
| 20260904105325 | 22 | 245 | 0.0 | 0.0 | 0.00 | 0.00 | 0.00 | 98 | 1015.6 |
| 20260904104820 | 22 | 249 | 0.0 | 0.0 | 0.00 | 0.00 | 0.00 | 98 | 1015.6 |
| 20260904104315 | 22 | 250 | 0.0 | 0.0 | 0.00 | 0.00 | 0.00 | 97 | 1015.5 |
| 20260904103813 | 23 | 250 | 0.0 | 0.0 | 0.00 | 0.00 | 0.00 | 97 | 1015.6 |
| 20260904103312 | 23 | 250 | 0.0 | 0.0 | 0.00 | 0.00 | 0.00 | 97 | 1015.6 |
| 20260904102808 | 23 | 244 | 0.0 | 0.0 | 0.00 | 0.00 | 0.00 | 97 | 1015.4 |
| 20260904102306 | 23 | 242 | 0.0 | 0.0 | 0.00 | 0.00 | 0.00 | 97 | 1015.5 |
| 20260904101759 | 23 | 242 | 0.0 | 0.0 | 0.00 | 0.00 | 0.00 | 97 | 1015.3 |
| 20260904101255 | 23 | 242 | 0.0 | 0.0 | 0.00 | 0.00 | 0.00 | 96 | 1015.4 |
| 20260904100751 | 23 | 242 | 0.0 | 0.0 | 0.00 | 0.00 | 0.00 | 96 | 1015.4 |
| 20260904100247 | 23 | 242 | 0.0 | 0.0 | 0.00 | 0.00 | 0.00 | 96 | 1015.5 |
| 20260904095746 | 23 | 242 | 0.0 | 0.0 | 0.00 | 0.00 | 0.00 | 96 | 1015.6 |
| 20260904095241 | 23 | 242 | 0.0 | 0.0 | 0.00 | 0.00 | 0.00 | 96 | 1015.6 |
| 20260904094736 | 23 | 242 | 0.0 | 0.0 | 0.00 | 0.00 | 0.00 | 95 | 1015.3 |
| 20260904094231 | 23 | 242 | 0.0 | 0.0 | 0.00 | 0.00 | 0.00 | 95 | 1015.6 |